GAP2974 RPNS-RPLL

Flight info

Callsign GAP2974
Flight time 1h 25m
Altitude 24000
Route TAC W9 AKDAP AKDAP3R
Aircraft DH8D/M-SDE2E3FGRY/H

Departure

Time 2026-04-16 02:52
Airport Siargao Airport (RPNS)

Arrival

Time 2026-04-16 04:17
Airport Ninoy Aquino International Airport (RPLL)
Time Latitude Longitude Altitude Speed Heading
2026-04-16 02:41 9.85690 126.01564 18 ft 0 kts 99°
2026-04-16 02:49 9.85690 126.01565 17 ft 0 kts 102°
2026-04-16 02:49 9.85668 126.01550 17 ft 11 kts 239°
2026-04-16 02:49 9.85617 126.01475 17 ft 11 kts 201°
2026-04-16 02:50 9.85533 126.01460 17 ft 15 kts 190°
2026-04-16 02:50 9.85395 126.01436 17 ft 21 kts 189°
2026-04-16 02:50 9.85271 126.01406 17 ft 13 kts 211°
2026-04-16 02:50 9.85253 126.01411 17 ft 3 kts 21°
2026-04-16 02:51 9.85303 126.01421 17 ft 19 kts 11°
2026-04-16 02:51 9.85356 126.01430 17 ft 0 kts
2026-04-16 02:51 9.85258 126.01412 17 ft 3 kts
2026-04-16 02:51 9.85550 126.01463 18 ft 85 kts 12°
2026-04-16 02:52 9.86355 126.01607 72 ft 133 kts 13°
2026-04-16 02:52 9.87283 126.01813 512 ft 142 kts 13°
2026-04-16 02:52 9.88273 126.01984 1052 ft 146 kts 10°
2026-04-16 02:52 9.89283 126.02148 1537 ft 156 kts 11°
2026-04-16 02:53 9.90429 126.02336 1934 ft 171 kts 11°
2026-04-16 02:53 9.91623 126.02532 2453 ft 178 kts 10°
2026-04-16 02:53 9.92853 126.02734 3036 ft 181 kts 10°
2026-04-16 02:53 9.94108 126.02939 3593 ft 184 kts 10°
2026-04-16 02:54 9.95367 126.03101 4170 ft 188 kts 360°
2026-04-16 02:54 9.96679 126.02605 4310 ft 216 kts 327°
2026-04-16 02:54 9.97887 126.01668 4789 ft 222 kts 325°
2026-04-16 02:54 9.99113 126.00700 5302 ft 225 kts 324°
2026-04-16 02:55 10.00338 125.99731 5825 ft 228 kts 324°
2026-04-16 02:55 10.01581 125.98747 6389 ft 230 kts 324°
2026-04-16 02:55 10.02838 125.97755 6934 ft 232 kts 324°
2026-04-16 02:55 10.04121 125.96742 7444 ft 235 kts 324°
2026-04-16 02:56 10.05415 125.95721 7954 ft 237 kts 325°
2026-04-16 02:56 10.06721 125.94692 8463 ft 238 kts 326°
2026-04-16 02:56 10.08041 125.93651 8936 ft 240 kts 326°
2026-04-16 02:56 10.09348 125.92622 9367 ft 241 kts 326°
2026-04-16 02:57 10.10702 125.91556 9753 ft 244 kts 326°
2026-04-16 02:57 10.12047 125.90497 10180 ft 246 kts 326°
2026-04-16 02:57 10.13433 125.89408 10318 ft 263 kts 326°
2026-04-16 02:57 10.14921 125.88242 10389 ft 277 kts 326°
2026-04-16 02:58 10.16490 125.87008 10455 ft 291 kts 325°
2026-04-16 02:58 10.18125 125.85722 10515 ft 300 kts 325°
2026-04-16 02:58 10.19783 125.84415 10572 ft 307 kts 325°
2026-04-16 02:58 10.21489 125.83070 10620 ft 313 kts 325°
2026-04-16 02:59 10.23231 125.81696 10677 ft 321 kts 325°
2026-04-16 02:59 10.25031 125.80276 10773 ft 326 kts 325°
2026-04-16 02:59 10.26810 125.78873 10951 ft 327 kts 324°
2026-04-16 02:59 10.28625 125.77442 11117 ft 328 kts 325°
2026-04-16 03:00 10.30420 125.76027 11268 ft 327 kts 324°
2026-04-16 03:00 10.32235 125.74595 11356 ft 330 kts 324°
2026-04-16 03:00 10.34052 125.73163 11469 ft 330 kts 324°
2026-04-16 03:00 10.35890 125.71713 11580 ft 332 kts 324°
2026-04-16 03:01 10.37698 125.70288 11732 ft 332 kts 325°
2026-04-16 03:01 10.39524 125.68848 11916 ft 331 kts 324°
2026-04-16 03:01 10.41353 125.67406 12068 ft 334 kts 324°
2026-04-16 03:01 10.43192 125.65956 12231 ft 334 kts 324°
2026-04-16 03:02 10.45026 125.64510 12386 ft 335 kts 324°
2026-04-16 03:02 10.46870 125.63055 12534 ft 336 kts 324°
2026-04-16 03:02 10.48740 125.61581 12709 ft 336 kts 324°
2026-04-16 03:02 10.50582 125.60126 12814 ft 338 kts 324°
2026-04-16 03:03 10.52427 125.58671 12998 ft 337 kts 324°
2026-04-16 03:03 10.54275 125.57212 13122 ft 337 kts 324°
2026-04-16 03:03 10.56140 125.55740 13255 ft 340 kts 324°
2026-04-16 03:03 10.58033 125.54245 13455 ft 339 kts 324°
2026-04-16 03:04 10.59882 125.52785 13556 ft 340 kts 324°
2026-04-16 03:04 10.61768 125.51295 13688 ft 341 kts 324°
2026-04-16 03:04 10.63650 125.49809 13809 ft 343 kts 324°
2026-04-16 03:04 10.65542 125.48314 13964 ft 344 kts 324°
2026-04-16 03:05 10.67441 125.46814 14144 ft 345 kts 324°
2026-04-16 03:05 10.69347 125.45306 14305 ft 345 kts 324°
2026-04-16 03:05 10.71252 125.43801 14430 ft 348 kts 324°
2026-04-16 03:05 10.73150 125.42301 14670 ft 346 kts 324°
2026-04-16 03:06 10.75070 125.40782 14759 ft 349 kts 323°
2026-04-16 03:06 10.76976 125.39275 14881 ft 350 kts 324°
2026-04-16 03:06 10.80833 125.36224 15199 ft 350 kts 323°
2026-04-16 03:07 10.82769 125.34692 15360 ft 351 kts 324°
2026-04-16 03:07 10.84692 125.33172 15515 ft 351 kts 323°
2026-04-16 03:07 10.86628 125.31639 15603 ft 354 kts 323°
2026-04-16 03:07 10.88583 125.30092 15796 ft 354 kts 324°
2026-04-16 03:08 10.90500 125.28574 15935 ft 353 kts 323°
2026-04-16 03:08 10.92448 125.27031 16018 ft 355 kts 323°
2026-04-16 03:08 10.94409 125.25478 16172 ft 355 kts 323°
2026-04-16 03:08 10.96357 125.23936 16333 ft 357 kts 323°
2026-04-16 03:09 10.98333 125.22369 16459 ft 358 kts 324°
2026-04-16 03:09 11.00296 125.20815 16579 ft 357 kts 324°
2026-04-16 03:09 11.02257 125.19261 16658 ft 360 kts 323°
2026-04-16 03:09 11.04251 125.17680 16801 ft 361 kts 324°
2026-04-16 03:10 11.06228 125.16112 16953 ft 360 kts 323°
2026-04-16 03:10 11.08188 125.14558 17024 ft 362 kts 323°
2026-04-16 03:10 11.10195 125.12967 17202 ft 361 kts 323°
2026-04-16 03:10 11.12169 125.11401 17341 ft 360 kts 323°
2026-04-16 03:11 11.14143 125.09834 17383 ft 361 kts 323°
2026-04-16 03:11 11.16152 125.08240 17480 ft 363 kts 323°
2026-04-16 03:11 11.18122 125.06676 17591 ft 364 kts 323°
2026-04-16 03:11 11.20142 125.05073 17722 ft 365 kts 323°
2026-04-16 03:12 11.22153 125.03477 17862 ft 366 kts 323°
2026-04-16 03:12 11.24169 125.01901 18042 ft 365 kts 325°
2026-04-16 03:12 11.26288 125.00452 18153 ft 367 kts 328°
2026-04-16 03:12 11.28439 124.99037 18316 ft 368 kts 328°
2026-04-16 03:13 11.30601 124.97608 18475 ft 368 kts 329°
2026-04-16 03:13 11.32731 124.96196 18601 ft 368 kts 328°
2026-04-16 03:13 11.34901 124.94752 18683 ft 369 kts 328°
2026-04-16 03:13 11.37048 124.93321 18784 ft 369 kts 328°
2026-04-16 03:14 11.39202 124.91882 18852 ft 372 kts 328°
2026-04-16 03:14 11.41367 124.90432 19036 ft 371 kts 328°
2026-04-16 03:14 11.43519 124.88989 19129 ft 373 kts 328°
2026-04-16 03:14 11.45680 124.87539 19274 ft 372 kts 328°
2026-04-16 03:15 11.47858 124.86077 19357 ft 374 kts 328°
2026-04-16 03:15 11.50040 124.84611 19450 ft 374 kts 328°
2026-04-16 03:15 11.52228 124.83142 19504 ft 373 kts 328°
2026-04-16 03:15 11.54383 124.81692 19547 ft 374 kts 328°
2026-04-16 03:16 11.56545 124.80240 19610 ft 373 kts 328°
2026-04-16 03:16 11.58718 124.78778 19661 ft 374 kts 328°
2026-04-16 03:16 11.60913 124.77302 19698 ft 374 kts 328°
2026-04-16 03:16 11.63076 124.75846 19790 ft 376 kts 328°
2026-04-16 03:17 11.65281 124.74361 19843 ft 376 kts 328°
2026-04-16 03:17 11.67448 124.72901 19934 ft 377 kts 328°
2026-04-16 03:17 11.69635 124.71429 20100 ft 374 kts 328°
2026-04-16 03:17 11.71779 124.69984 20240 ft 373 kts 328°
2026-04-16 03:18 11.73934 124.68531 20538 ft 368 kts 328°
2026-04-16 03:18 11.76089 124.67078 20658 ft 369 kts 328°
2026-04-16 03:18 11.78252 124.65621 20772 ft 372 kts 328°
2026-04-16 03:18 11.80401 124.64174 20950 ft 371 kts 328°
2026-04-16 03:19 11.82552 124.62724 21055 ft 372 kts 328°
2026-04-16 03:19 11.84738 124.61250 21186 ft 374 kts 328°
2026-04-16 03:19 11.86895 124.59796 21320 ft 374 kts 328°
2026-04-16 03:19 11.89049 124.58342 21688 ft 369 kts 328°
2026-04-16 03:20 11.91179 124.56904 22172 ft 362 kts 328°
2026-04-16 03:20 11.93276 124.55489 22509 ft 361 kts 328°
2026-04-16 03:20 11.95388 124.54063 22803 ft 363 kts 328°
2026-04-16 03:20 11.97485 124.52649 23082 ft 364 kts 328°
2026-04-16 03:21 11.99602 124.51219 23328 ft 366 kts 328°
2026-04-16 03:21 12.01740 124.49776 23575 ft 366 kts 328°
2026-04-16 03:21 12.03876 124.48334 23762 ft 367 kts 328°
2026-04-16 03:21 12.06001 124.46898 23896 ft 371 kts 328°
2026-04-16 03:22 12.08176 124.45428 23910 ft 371 kts 328°
2026-04-16 03:22 12.10307 124.43980 23912 ft 361 kts 328°
2026-04-16 03:22 12.12377 124.42576 23914 ft 352 kts 328°
2026-04-16 03:22 12.14403 124.41202 23919 ft 347 kts 328°
2026-04-16 03:23 12.16390 124.39856 23920 ft 341 kts 328°
2026-04-16 03:23 12.18374 124.38513 23922 ft 336 kts 328°
2026-04-16 03:23 12.20297 124.37212 23924 ft 333 kts 328°
2026-04-16 03:23 12.22246 124.35892 23926 ft 332 kts 328°
2026-04-16 03:24 12.24153 124.34602 23926 ft 330 kts 328°
2026-04-16 03:24 12.26061 124.33312 23927 ft 329 kts 328°
2026-04-16 03:24 12.27995 124.32001 23928 ft 328 kts 328°
2026-04-16 03:24 12.29898 124.30714 23926 ft 327 kts 328°
2026-04-16 03:25 12.31801 124.29425 23925 ft 327 kts 328°
2026-04-16 03:25 12.33692 124.28144 23925 ft 326 kts 328°
2026-04-16 03:25 12.35576 124.26868 23923 ft 326 kts 328°
2026-04-16 03:25 12.37488 124.25571 23922 ft 326 kts 327°
2026-04-16 03:26 12.39326 124.24206 23924 ft 326 kts 324°
2026-04-16 03:26 12.41127 124.22783 23924 ft 327 kts 324°
2026-04-16 03:26 12.42932 124.21355 23927 ft 326 kts 324°
2026-04-16 03:26 12.44716 124.19949 23930 ft 326 kts 324°
2026-04-16 03:27 12.46529 124.18523 23931 ft 326 kts 324°
2026-04-16 03:27 12.48338 124.17102 23931 ft 326 kts 324°
2026-04-16 03:27 12.50133 124.15694 23932 ft 326 kts 324°
2026-04-16 03:27 12.51943 124.14277 23934 ft 326 kts 324°
2026-04-16 03:28 12.53733 124.12875 23935 ft 326 kts 324°
2026-04-16 03:28 12.55546 124.11456 23936 ft 327 kts 324°
2026-04-16 03:28 12.57361 124.10036 23940 ft 327 kts 324°
2026-04-16 03:28 12.59154 124.08634 23942 ft 327 kts 324°
2026-04-16 03:29 12.60974 124.07210 23945 ft 327 kts 324°
2026-04-16 03:29 12.62801 124.05782 23946 ft 328 kts 324°
2026-04-16 03:29 12.64616 124.04362 23950 ft 328 kts 324°
2026-04-16 03:29 12.66414 124.02955 23952 ft 328 kts 324°
2026-04-16 03:30 12.68231 124.01533 23957 ft 328 kts 324°
2026-04-16 03:30 12.70066 124.00097 23962 ft 329 kts 324°
2026-04-16 03:30 12.71869 123.98686 23966 ft 329 kts 324°
2026-04-16 03:30 12.73702 123.97251 23968 ft 329 kts 324°
2026-04-16 03:31 12.75527 123.95822 23965 ft 330 kts 324°
2026-04-16 03:31 12.77342 123.94401 23962 ft 330 kts 324°
2026-04-16 03:31 12.79167 123.92972 23960 ft 330 kts 324°
2026-04-16 03:31 12.81016 123.91524 23960 ft 330 kts 324°
2026-04-16 03:32 12.82831 123.90102 23957 ft 331 kts 324°
2026-04-16 03:32 12.84680 123.88652 23953 ft 331 kts 324°
2026-04-16 03:34 12.97516 123.78586 23933 ft 332 kts 323°
2026-04-16 03:34 12.99364 123.77135 23934 ft 332 kts 323°
2026-04-16 03:34 13.01196 123.75697 23934 ft 332 kts 323°
2026-04-16 03:34 13.03043 123.74248 23935 ft 332 kts 323°
2026-04-16 03:35 13.04872 123.72811 23938 ft 332 kts 323°
2026-04-16 03:35 13.06716 123.71362 23939 ft 331 kts 324°
2026-04-16 03:35 13.08529 123.69939 23939 ft 331 kts 324°
2026-04-16 03:35 13.10362 123.68498 23941 ft 331 kts 324°
2026-04-16 03:36 13.12188 123.67052 23939 ft 331 kts 322°
2026-04-16 03:36 13.13962 123.65533 23940 ft 332 kts 321°
2026-04-16 03:36 13.15727 123.63985 23941 ft 331 kts 321°
2026-04-16 03:36 13.17470 123.62460 23941 ft 332 kts 320°
2026-04-16 03:37 13.19233 123.60920 23940 ft 332 kts 321°
2026-04-16 03:37 13.21001 123.59377 23939 ft 332 kts 321°
2026-04-16 03:37 13.22743 123.57860 23938 ft 332 kts 321°
2026-04-16 03:37 13.24509 123.56323 23937 ft 332 kts 321°
2026-04-16 03:38 13.26280 123.54781 23935 ft 332 kts 321°
2026-04-16 03:38 13.28029 123.53260 23937 ft 331 kts 321°
2026-04-16 03:38 13.29798 123.51722 23939 ft 331 kts 321°
2026-04-16 03:38 13.31568 123.50182 23941 ft 331 kts 321°
2026-04-16 03:39 13.33309 123.48669 23944 ft 331 kts 321°
2026-04-16 03:39 13.35074 123.47133 23946 ft 331 kts 321°
2026-04-16 03:39 13.36832 123.45605 23949 ft 331 kts 321°
2026-04-16 03:39 13.38593 123.44073 23950 ft 331 kts 321°
2026-04-16 03:40 13.40365 123.42531 23950 ft 331 kts 321°
2026-04-16 03:40 13.42108 123.41016 23951 ft 331 kts 321°
2026-04-16 03:40 13.43874 123.39478 23953 ft 331 kts 321°
2026-04-16 03:40 13.45645 123.37937 23952 ft 332 kts 321°
2026-04-16 03:41 13.47407 123.36403 23952 ft 332 kts 321°
2026-04-16 03:41 13.49153 123.34883 23950 ft 332 kts 321°
2026-04-16 03:41 13.50928 123.33337 23947 ft 331 kts 321°
2026-04-16 03:41 13.52686 123.31806 23944 ft 331 kts 321°
2026-04-16 03:42 13.54463 123.30258 23940 ft 331 kts 321°
2026-04-16 03:42 13.56205 123.28740 23937 ft 331 kts 321°
2026-04-16 03:42 13.57932 123.27144 23918 ft 332 kts 313°
2026-04-16 03:42 13.59160 123.25144 23946 ft 330 kts 297°
2026-04-16 03:43 13.60167 123.23034 23933 ft 329 kts 297°
2026-04-16 03:43 13.61172 123.20908 23929 ft 329 kts 296°
2026-04-16 03:43 13.62171 123.18797 23927 ft 329 kts 297°
2026-04-16 03:43 13.63161 123.16710 23928 ft 329 kts 297°
2026-04-16 03:44 13.64165 123.14598 23926 ft 329 kts 297°
2026-04-16 03:44 13.65178 123.12470 23929 ft 328 kts 297°
2026-04-16 03:44 13.66183 123.10358 23929 ft 328 kts 297°
2026-04-16 03:44 13.67199 123.08225 23929 ft 328 kts 297°
2026-04-16 03:45 13.68211 123.06100 23931 ft 329 kts 297°
2026-04-16 03:45 13.69211 123.04001 23932 ft 329 kts 297°
2026-04-16 03:45 13.70220 123.01885 23930 ft 329 kts 297°
2026-04-16 03:45 13.71216 122.99794 23932 ft 328 kts 297°
2026-04-16 03:46 13.72230 122.97664 23931 ft 328 kts 297°
2026-04-16 03:46 13.73227 122.95570 23932 ft 327 kts 297°
2026-04-16 03:46 13.74214 122.93499 23932 ft 325 kts 297°
2026-04-16 03:46 13.75213 122.91402 23933 ft 325 kts 297°
2026-04-16 03:47 13.76209 122.89309 23932 ft 325 kts 297°
2026-04-16 03:47 13.77201 122.87225 23934 ft 325 kts 297°
2026-04-16 03:47 13.78196 122.85133 23936 ft 326 kts 297°
2026-04-16 03:47 13.79190 122.83044 23938 ft 325 kts 297°
2026-04-16 03:48 13.80182 122.80957 23944 ft 325 kts 297°
2026-04-16 03:48 13.81179 122.78862 23951 ft 325 kts 297°
2026-04-16 03:48 13.82165 122.76788 23958 ft 325 kts 297°
2026-04-16 03:48 13.83152 122.74709 23963 ft 324 kts 297°
2026-04-16 03:49 13.84136 122.72639 23968 ft 324 kts 297°
2026-04-16 03:49 13.85137 122.70531 23968 ft 324 kts 297°
2026-04-16 03:49 13.86119 122.68463 23970 ft 323 kts 297°
2026-04-16 03:49 13.87103 122.66389 23969 ft 322 kts 297°
2026-04-16 03:50 13.88082 122.64326 23968 ft 322 kts 297°
2026-04-16 03:50 13.89057 122.62271 23968 ft 322 kts 297°
2026-04-16 03:50 13.90043 122.60193 23971 ft 323 kts 297°
2026-04-16 03:50 13.91030 122.58112 23971 ft 324 kts 297°
2026-04-16 03:51 13.92025 122.56014 23969 ft 325 kts 297°
2026-04-16 03:51 13.93009 122.53938 23967 ft 325 kts 297°
2026-04-16 03:51 13.94005 122.51836 23964 ft 326 kts 297°
2026-04-16 03:51 13.95001 122.49731 23959 ft 327 kts 297°
2026-04-16 03:52 13.95998 122.47626 23953 ft 326 kts 297°
2026-04-16 03:52 13.96996 122.45519 23949 ft 326 kts 297°
2026-04-16 03:52 13.97990 122.43421 23943 ft 326 kts 297°
2026-04-16 03:52 13.98982 122.41323 23937 ft 327 kts 297°
2026-04-16 03:53 13.99988 122.39197 23935 ft 327 kts 297°
2026-04-16 03:53 14.00968 122.37122 23934 ft 327 kts 297°
2026-04-16 03:53 14.01969 122.35008 23931 ft 327 kts 297°
2026-04-16 03:53 14.02967 122.32893 23932 ft 325 kts 297°
2026-04-16 03:54 14.03943 122.30828 23930 ft 324 kts 297°
2026-04-16 03:54 14.04930 122.28738 23928 ft 323 kts 297°
2026-04-16 03:54 14.05911 122.26662 23926 ft 323 kts 297°
2026-04-16 03:54 14.06895 122.24579 23926 ft 323 kts 297°
2026-04-16 03:55 14.07875 122.22501 23926 ft 323 kts 297°
2026-04-16 03:55 14.08852 122.20431 23925 ft 323 kts 297°
2026-04-16 03:55 14.09849 122.18319 23926 ft 325 kts 297°
2026-04-16 03:55 14.10822 122.16256 23926 ft 325 kts 297°
2026-04-16 03:56 14.11817 122.14145 23926 ft 325 kts 297°
2026-04-16 03:56 14.12802 122.12058 23926 ft 324 kts 297°
2026-04-16 03:56 14.13781 122.09978 23926 ft 324 kts 297°
2026-04-16 03:56 14.14767 122.07886 23926 ft 325 kts 297°
2026-04-16 03:57 14.15766 122.05764 23927 ft 327 kts 297°
2026-04-16 03:57 14.16757 122.03661 23897 ft 328 kts 297°
2026-04-16 03:57 14.17764 122.01524 23637 ft 336 kts 297°
2026-04-16 03:57 14.18792 121.99342 23302 ft 345 kts 297°
2026-04-16 03:58 14.19839 121.97120 22944 ft 354 kts 297°
2026-04-16 03:58 14.20929 121.94804 22561 ft 360 kts 298°
2026-04-16 03:58 14.22021 121.92482 22179 ft 367 kts 298°
2026-04-16 03:58 14.23107 121.90070 21769 ft 366 kts 296°
2026-04-16 03:59 14.24104 121.87718 21391 ft 360 kts 295°
2026-04-16 03:59 14.25105 121.85354 21007 ft 354 kts 296°
2026-04-16 03:59 14.26089 121.83035 20636 ft 351 kts 296°
2026-04-16 03:59 14.27060 121.80757 20270 ft 348 kts 296°
2026-04-16 04:00 14.28026 121.78491 19891 ft 344 kts 296°
2026-04-16 04:00 14.28991 121.76229 19525 ft 341 kts 296°
2026-04-16 04:00 14.29941 121.74004 19162 ft 338 kts 296°
2026-04-16 04:00 14.30879 121.71810 18797 ft 337 kts 296°
2026-04-16 04:01 14.31818 121.69614 18456 ft 335 kts 296°
2026-04-16 04:01 14.32776 121.67416 18116 ft 333 kts 296°
2026-04-16 04:01 14.33712 121.65217 17750 ft 332 kts 296°
2026-04-16 04:01 14.34619 121.63068 17388 ft 330 kts 296°
2026-04-16 04:02 14.35512 121.60959 17047 ft 328 kts 296°
2026-04-16 04:02 14.36433 121.58809 16706 ft 326 kts 296°
2026-04-16 04:02 14.37298 121.56654 16344 ft 327 kts 289°
2026-04-16 04:02 14.37455 121.54333 15917 ft 331 kts 267°
2026-04-16 04:03 14.37166 121.51977 15437 ft 334 kts 264°
2026-04-16 04:03 14.36839 121.49618 14913 ft 325 kts 263°
2026-04-16 04:03 14.36509 121.47356 14474 ft 314 kts 263°
2026-04-16 04:03 14.36186 121.45137 14114 ft 315 kts 263°
2026-04-16 04:04 14.35857 121.42893 13746 ft 315 kts 263°
2026-04-16 04:04 14.35529 121.40678 13380 ft 315 kts 263°
2026-04-16 04:04 14.35194 121.38429 13009 ft 315 kts 263°
2026-04-16 04:04 14.34863 121.36221 12656 ft 314 kts 263°
2026-04-16 04:05 14.34526 121.33993 12282 ft 312 kts 262°
2026-04-16 04:05 14.34197 121.31824 11927 ft 310 kts 262°
2026-04-16 04:05 14.33857 121.29638 11579 ft 310 kts 262°
2026-04-16 04:05 14.33521 121.27453 11243 ft 307 kts 262°
2026-04-16 04:06 14.33194 121.25287 10869 ft 307 kts 262°
2026-04-16 04:06 14.32864 121.23119 10518 ft 306 kts 262°
2026-04-16 04:06 14.32537 121.20967 10206 ft 306 kts 262°
2026-04-16 04:06 14.32213 121.18839 9856 ft 305 kts 262°
2026-04-16 04:07 14.31903 121.16809 9526 ft 304 kts 262°
2026-04-16 04:07 14.31253 121.12556 8835 ft 302 kts 262°
2026-04-16 04:07 14.30926 121.10428 8479 ft 298 kts 261°
2026-04-16 04:08 14.30602 121.08329 8144 ft 293 kts 261°
2026-04-16 04:08 14.30307 121.06432 7834 ft 281 kts 261°
2026-04-16 04:08 14.29998 121.04446 7506 ft 268 kts 261°
2026-04-16 04:08 14.29708 121.02577 7226 ft 263 kts 262°
2026-04-16 04:09 14.29420 121.00687 6935 ft 268 kts 262°
2026-04-16 04:09 14.29129 120.98782 6623 ft 272 kts 262°
2026-04-16 04:09 14.28833 120.96847 6314 ft 274 kts 262°
2026-04-16 04:09 14.28533 120.94908 5983 ft 269 kts 261°
2026-04-16 04:10 14.28240 120.93040 5681 ft 257 kts 261°
2026-04-16 04:10 14.27963 120.91270 5391 ft 247 kts 261°
2026-04-16 04:10 14.27891 120.89535 4997 ft 237 kts 284°
2026-04-16 04:10 14.28718 120.88190 4779 ft 220 kts 322°
2026-04-16 04:11 14.30005 120.87303 4600 ft 220 kts 329°
2026-04-16 04:11 14.31300 120.86485 4406 ft 219 kts 330°
2026-04-16 04:11 14.32615 120.85674 4213 ft 219 kts 330°
2026-04-16 04:11 14.33944 120.84867 4017 ft 218 kts 330°
2026-04-16 04:12 14.35208 120.84109 3826 ft 217 kts 330°
2026-04-16 04:12 14.36528 120.83318 3632 ft 216 kts 331°
2026-04-16 04:12 14.37853 120.82570 3366 ft 219 kts 338°
2026-04-16 04:12 14.39282 120.82492 3079 ft 203 kts 23°
2026-04-16 04:13 14.40319 120.83422 2932 ft 195 kts 56°
2026-04-16 04:13 14.41054 120.84605 2769 ft 197 kts 59°
2026-04-16 04:13 14.41770 120.85816 2595 ft 199 kts 60°
2026-04-16 04:13 14.42487 120.87057 2431 ft 203 kts 60°
2026-04-16 04:14 14.43207 120.88321 2255 ft 205 kts 61°
2026-04-16 04:14 14.43908 120.89552 2062 ft 194 kts 61°
2026-04-16 04:14 14.44553 120.90691 1905 ft 180 kts 62°
2026-04-16 04:14 14.45161 120.91770 1726 ft 167 kts 61°
2026-04-16 04:15 14.45723 120.92763 1557 ft 153 kts 61°
2026-04-16 04:15 14.46249 120.93707 1371 ft 154 kts 62°
2026-04-16 04:15 14.46793 120.94698 1172 ft 161 kts 60°
2026-04-16 04:15 14.47352 120.95699 941 ft 156 kts 61°
2026-04-16 04:16 14.47878 120.96633 713 ft 145 kts 60°
2026-04-16 04:16 14.48366 120.97509 541 ft 138 kts 60°
2026-04-16 04:16 14.48853 120.98383 471 ft 142 kts 60°
2026-04-16 04:16 14.49364 120.99268 318 ft 147 kts 58°
2026-04-16 04:17 14.49880 121.00191 127 ft 146 kts 59°
2026-04-16 04:17 14.50329 121.00993 83 ft 100 kts 60°
2026-04-16 04:17 14.50611 121.01502 83 ft 67 kts 59°
2026-04-16 04:17 14.50776 121.01727 83 ft 30 kts 39°
2026-04-16 04:18 14.50886 121.01785 83 ft 11 kts 332°
2026-04-16 04:18 14.50891 121.01717 83 ft 9 kts 239°
2026-04-16 04:18 14.50863 121.01668 83 ft 6 kts 240°
2026-04-16 04:18 14.50843 121.01631 83 ft 5 kts 240°
2026-04-16 04:19 14.50798 121.01550 83 ft 14 kts 240°
2026-04-16 04:19 14.50752 121.01468 83 ft 14 kts 240°
2026-04-16 04:19 14.50690 121.01356 83 ft 16 kts 240°
2026-04-16 04:19 14.50640 121.01266 83 ft 12 kts 240°
2026-04-16 04:20 14.50602 121.01199 83 ft 9 kts 240°
2026-04-16 04:20 14.50596 121.01136 83 ft 13 kts 319°
2026-04-16 04:20 14.50639 121.01084 83 ft 7 kts 324°
2026-04-16 04:20 14.50662 121.01070 83 ft 1 kts 330°
2026-04-16 04:21 14.50665 121.01069 83 ft 0 kts 330°